Погода в Верхнем Синевидном

Украина / Львовская область     49°05′40″N   23°35′26″E
темп.,
°C
ветер,
м/с
пор.,
м/с
влажн.,
%
обл.,
%
осадки,
мм/ч
давл.,
гПа
погр.,
м
17 мая, пн
пн1700:00+9ююз2397100 0.0 100895
03:00+9юз2895100 0.1 1008554
06:00+8юз228788 0.0 100844
09:00+12ююв22721 0.1 1007697
12:00+17юз224724 0.0 10051765
15:00+18ссв124568 0.1 10041665
18:00+15св226951 0.3 1003548
21:00+10вюв1191100 0.9 100410
18 мая, вт
вт1800:00+9ююз1193100 0.1 100411
03:00+8з1198100 1.5 100415
06:00+9зсз1299100 1.6 1003181
09:00+8зсз2398100 6.1 1005285
12:00+8сз1496100 6.3 1006402
15:00+8зсз2996100 7.3 10071151
18:00+8зсз2995100 0.4 10091188
21:00+7з31094100 0.8 1010811
19 мая, ср
ср1900:00+6зюз2696100 0.0 1011223
03:00+7зюз3119372 0.1 1012699
06:00+5юз2397100 0.0 101359
09:00+9з478170 0.1 1013900
12:00+12зсз456183 0.1 10121353
15:00+14з445290 0.2 10111516
18:00+13юз236876 0.4 1010904
21:00+9юз1190100 1.8 101113
20 мая, чт
чт2000:00+8ююз1197100 7.0 101128
03:00+7з119790 7.8 101125
06:00+7з119799 0.7 101148
09:00+7зсз119385 1.3 1011284
12:00+8зсз2386100 0.6 1012738
15:00+9зсз2480100 0.9 1012825
18:00+8сз2582100 0.1 1013789
21:00+6зсз1397100 0.4 1015249
21 мая, пт
пт2100:00+6з1298100 0.4 1015200
03:00+5з1299100 3.1 1016118
06:00+6ссз2699100 3.1 1016536
09:00+6ссз3999100 5.3 1018636
12:00+5с41196100 1.4 1020686
15:00+6ссз2894100 1.6 1020570
18:00+9св268870 0.3 1018771
21:00+7ссв2294100 0.6 101922